Seldovia, AK

7:48 AM AKDT on August 28, 2016 (GMT -0800)
Seldovia

Weather History for PASO - February, 2013

Change the Weather History Date:

Thursday, February 14, 2013

  Actual Average (PAHO) Record (PAHO)
Temperature  
Mean Temperature 34 °F -  
Max Temperature 36 °F 31 °F 48 °F (1970)
Min Temperature 32 °F 17 °F -7 °F (1954)
Degree Days  
Heating Degree Days 30    
Moisture  
Dew Point 31 °F    
Average Humidity 91    
Maximum Humidity 100    
Minimum Humidity 81    
Precipitation  
Precipitation 0.63 in - - ()
Sea Level Pressure  
Sea Level Pressure 29.31 in    
Wind  
Wind Speed 4 mph (North)    
Max Wind Speed 10 mph    
Max Gust Speed -    
Visibility 4 miles    
Events Fog , Rain , Snow    
Averages and records for this station are not official NWS values.
T = Trace of Precipitation, MM = Missing Value Source: NWS Daily Summary

Daily Weather History Graph

Daily Weather History Graph

Search for Another Location

Airport or City:

Trip Planner

Search our weather history database for the weather conditions in past years. The results will help you decide how hot, cold, wet, or windy it might be!

Date:

Astronomy

Feb. 14, 2013 Rise Set
Actual Time 8:44 AM AKST 5:58 PM AKST
Civil Twilight 8:01 AM AKST 6:42 PM AKST
Nautical Twilight 7:13 AM AKST 7:30 PM AKST
Astronomical Twilight 6:25 AM AKST 8:17 PM AKST
Moon 9:29 AM AKST (2/14) No Moon Set
Length of Visible Light 10h 41m
Length of Day
9h 14m
Waxing Crescent, 23% of the Moon is Illuminated
Feb 14
Waxing Crescent
Feb 17
First Quarter
Feb 25
Full
Mar 4
Last Quarter
Mar 11
New

Hourly Weather History & Observations

Time (AKST) Temp. Windchill Dew Point Humidity Pressure Visibility Wind Dir Wind Speed Gust Speed Precip Events Conditions
12:53 AM 36.0 °F 29.6 °F 30.9 °F 82% 29.50 in 10.0 mi SSE 8.1 mph - N/A   Mostly Cloudy
1:53 AM 36.0 °F 33.3 °F 32.0 °F 86% 29.49 in 10.0 mi Variable 3.5 mph - 0.00 in   Overcast
3:53 AM 34.0 °F - 33.1 °F 96% 29.45 in 10.0 mi Calm Calm - N/A   Overcast
4:53 AM 34.0 °F 31.0 °F 33.1 °F 96% 29.41 in 10.0 mi North 3.5 mph - N/A   Overcast
5:53 AM 34.0 °F - 33.1 °F 96% 29.36 in 10.0 mi Calm Calm - N/A   Overcast
6:53 AM 34.0 °F - 33.1 °F 96% 29.32 in 10.0 mi Calm Calm - N/A   Overcast
7:33 AM 35.6 °F 32.8 °F 33.8 °F 93% 29.29 in 5.0 mi Variable 3.5 mph - 0.03 in Rain Rain
7:53 AM 35.1 °F 31.0 °F 34.0 °F 96% 29.28 in 6.0 mi NNW 4.6 mph - 0.06 in Rain Light Rain
8:51 AM 33.8 °F 30.8 °F 33.8 °F 100% 29.22 in 4.0 mi North 3.5 mph - 0.07 in Snow Light Snow
8:53 AM 34.0 °F - 33.1 °F 96% 29.22 in 4.0 mi Calm Calm - 0.07 in Snow Light Snow
9:08 AM 33.8 °F 25.8 °F 32.0 °F 93% 29.21 in 1.8 mi NNE 10.4 mph - 0.03 in Snow Light Snow
9:26 AM 33.8 °F 26.4 °F 30.2 °F 87% 29.20 in 0.8 mi North 9.2 mph - 0.05 in Snow Light Snow
9:40 AM 33.8 °F - 32.0 °F 93% 29.19 in 1.0 mi Calm Calm - 0.07 in Snow Light Snow
9:53 AM 33.1 °F - 30.9 °F 92% 29.18 in 2.5 mi Calm Calm - 0.09 in Snow Light Snow
10:06 AM 33.8 °F 29.6 °F 32.0 °F 93% 29.17 in 4.0 mi NNW 4.6 mph - 0.02 in Snow Light Snow
10:47 AM 33.8 °F 28.6 °F 32.0 °F 93% 29.15 in 3.0 mi Variable 5.8 mph - 0.09 in Snow Light Snow
10:51 AM 33.8 °F 30.8 °F 32.0 °F 93% 29.15 in 2.5 mi Variable 3.5 mph - 0.09 in Snow Light Snow
10:53 AM 34.0 °F 29.8 °F 32.0 °F 92% 29.16 in 2.5 mi Variable 4.6 mph - 0.10 in Snow Light Snow
11:00 AM 33.8 °F 27.7 °F 32.0 °F 93% 29.15 in 0.8 mi Variable 6.9 mph - 0.01 in Snow Light Snow
11:16 AM 33.8 °F 28.6 °F 32.0 °F 93% 29.15 in 0.5 mi North 5.8 mph - 0.04 in Fog , Snow Snow
11:30 AM 33.8 °F 29.6 °F 32.0 °F 93% 29.15 in 0.8 mi North 4.6 mph - 0.06 in Snow Light Snow
11:37 AM 33.8 °F 28.6 °F 32.0 °F 93% 29.15 in 1.0 mi North 5.8 mph - 0.07 in Snow Light Snow
11:53 AM 34.0 °F 28.0 °F 32.0 °F 92% 29.16 in 1.0 mi North 6.9 mph - 0.10 in Snow Light Snow
12:53 PM 34.0 °F 28.8 °F 32.0 °F 92% 29.19 in 1.0 mi Variable 5.8 mph - 0.06 in Snow Light Snow
1:10 PM 33.8 °F - 32.0 °F 93% 29.20 in 0.8 mi Calm Calm - 0.01 in Snow Light Snow
1:53 PM 33.1 °F - 32.0 °F 96% 29.22 in 0.8 mi Calm Calm - 0.05 in Snow Light Snow
2:07 PM 33.8 °F - 32.0 °F 93% 29.23 in 1.0 mi Calm Calm - 0.01 in Snow Light Snow
2:17 PM 33.8 °F - 32.0 °F 93% 29.23 in 0.8 mi Calm Calm - 0.01 in Snow Light Snow
2:24 PM 33.8 °F 29.6 °F 30.2 °F 87% 29.24 in 0.8 mi Variable 4.6 mph - 0.02 in Snow Light Snow
2:53 PM 33.1 °F 30.0 °F 30.9 °F 92% 29.24 in 1.0 mi North 3.5 mph - 0.03 in Snow Light Snow
3:06 PM 33.8 °F 28.6 °F 32.0 °F 93% 29.24 in 2.0 mi North 5.8 mph - 0.01 in Snow Light Snow
3:19 PM 33.8 °F 30.8 °F 32.0 °F 93% 29.25 in 4.0 mi Variable 3.5 mph - 0.01 in Snow Light Snow
3:31 PM 33.8 °F - 32.0 °F 93% 29.25 in 9.0 mi Calm Calm - 0.01 in   Scattered Clouds
3:53 PM 34.0 °F - 32.0 °F 92% 29.27 in 10.0 mi Calm Calm - 0.01 in   Mostly Cloudy
4:02 PM 33.8 °F 28.6 °F 30.2 °F 87% 29.28 in 4.0 mi Variable 5.8 mph - 0.00 in Snow Light Snow
4:06 PM 33.8 °F 27.7 °F 30.2 °F 87% 29.28 in 2.5 mi Variable 6.9 mph - 0.00 in Snow Light Snow
4:15 PM 33.8 °F 27.7 °F 30.2 °F 87% 29.29 in 0.8 mi NNE 6.9 mph - 0.00 in Snow Light Snow
4:31 PM 33.8 °F 27.0 °F 30.2 °F 87% 29.31 in 1.5 mi NNE 8.1 mph - 0.00 in Snow Light Snow
4:37 PM 33.8 °F 27.0 °F 30.2 °F 87% 29.31 in 3.0 mi North 8.1 mph - 0.00 in Snow Light Snow
4:53 PM 33.1 °F 26.9 °F 30.0 °F 89% 29.33 in 10.0 mi North 6.9 mph - 0.00 in   Overcast
5:53 PM 33.1 °F - 30.9 °F 92% 29.37 in 10.0 mi Calm Calm - N/A   Overcast
6:53 PM 33.1 °F 30.0 °F 30.9 °F 92% 29.41 in 10.0 mi SSW 3.5 mph - N/A   Overcast
7:40 PM 33.8 °F - 32.0 °F 93% 29.43 in 2.0 mi Calm Calm - 0.01 in Snow Light Snow
7:48 PM 33.8 °F - 32.0 °F 93% 29.43 in 1.8 mi Calm Calm - 0.01 in Snow Light Snow
7:53 PM 33.1 °F - 32.0 °F 96% 29.44 in 1.8 mi Calm Calm - 0.01 in Snow Light Snow
8:20 PM 33.8 °F - 32.0 °F 93% 29.45 in 2.5 mi Calm Calm - 0.01 in Snow Light Snow
8:35 PM 33.8 °F - 32.0 °F 93% 29.45 in 1.5 mi Calm Calm - 0.02 in Snow Light Snow
8:53 PM 34.0 °F 29.8 °F 32.0 °F 92% 29.47 in 1.5 mi Variable 4.6 mph - 0.04 in Snow Light Snow
9:08 PM 33.8 °F 28.6 °F 30.2 °F 87% 29.47 in 2.5 mi Variable 5.8 mph - 0.00 in Snow Light Snow
9:30 PM 33.8 °F 27.7 °F 30.2 °F 87% 29.48 in 5.0 mi Variable 6.9 mph - 0.01 in   Overcast
9:53 PM 33.1 °F - 30.9 °F 92% 29.50 in 10.0 mi Calm Calm - 0.01 in   Overcast
10:11 PM 33.8 °F - 30.2 °F 87% 29.50 in 10.0 mi Calm Calm - N/A   Overcast
10:28 PM 33.8 °F - 30.2 °F 87% 29.51 in 10.0 mi Calm Calm - N/A   Overcast
10:53 PM 33.1 °F 28.7 °F 28.9 °F 85% 29.52 in 10.0 mi Variable 4.6 mph - N/A   Overcast
11:29 PM 33.8 °F 30.8 °F 28.4 °F 81% 29.54 in 10.0 mi South 3.5 mph - N/A   Overcast
11:53 PM 32.0 °F 26.4 °F 27.0 °F 82% 29.55 in 10.0 mi SSW 5.8 mph - N/A   Overcast